Time,TemperatureF,DewpointF,PressureIn,WindDirection,WindDirectionDegrees,WindSpeedMPH,WindSpeedGustMPH,Humidity,HourlyPrecipIn,Conditions,Clouds,dailyrainin,SoftwareType,DateUTC
2013-02-06 00:00:00,44.0,41.0,29.87,ESE,120,7.0,-999.0,90,-99.99,,,-99.99,,2013-02-06 08:00:00,
2013-02-06 00:21:00,44.0,41.0,29.87,ESE,120,7.0,-999.0,90,-99.99,,,-99.99,,2013-02-06 08:21:00,
2013-02-06 00:31:00,44.0,41.0,29.87,ESE,120,7.0,-999.0,90,-99.99,,,-99.99,,2013-02-06 08:31:00,
2013-02-06 00:41:00,44.0,41.0,29.87,ESE,120,7.0,-999.0,90,-99.99,,,-99.99,,2013-02-06 08:41:00,
2013-02-06 00:53:00,44.0,41.0,29.87,ESE,120,7.0,-999.0,90,-99.99,,,-99.99,,2013-02-06 08:53:00,
2013-02-06 01:00:00,45.0,42.0,29.89,SE,140,7.0,-999.0,88,-99.99,,,-99.99,,2013-02-06 09:00:00,
2013-02-06 01:21:00,45.0,42.0,29.89,SE,140,7.0,-999.0,88,-99.99,,,-99.99,,2013-02-06 09:21:00,
2013-02-06 01:31:00,45.0,42.0,29.89,SE,140,7.0,-999.0,88,-99.99,,,-99.99,,2013-02-06 09:31:00,
2013-02-06 01:41:00,45.0,42.0,29.89,SE,140,7.0,-999.0,88,-99.99,,,-99.99,,2013-02-06 09:41:00,
2013-02-06 01:51:00,45.0,42.0,29.89,SE,140,7.0,-999.0,88,-99.99,,,-99.99,,2013-02-06 09:51:00,
2013-02-06 02:00:00,46.0,41.0,29.91,South,180,9.0,-999.0,81,-99.99,,,-99.99,,2013-02-06 10:00:00,
2013-02-06 02:21:00,46.0,41.0,29.91,South,180,9.0,-999.0,81,-99.99,,,-99.99,,2013-02-06 10:21:00,
2013-02-06 02:31:00,46.0,41.0,29.91,South,180,9.0,-999.0,81,-99.99,,,-99.99,,2013-02-06 10:31:00,
2013-02-06 02:41:00,46.0,41.0,29.91,South,180,9.0,-999.0,81,-99.99,,,-99.99,,2013-02-06 10:41:00,
2013-02-06 02:51:00,46.0,41.0,29.91,South,180,9.0,-999.0,81,-99.99,,,-99.99,,2013-02-06 10:51:00,
2013-02-06 03:00:00,45.0,42.0,29.92,South,180,6.0,-999.0,90,-99.99,,,-99.99,,2013-02-06 11:00:00,
2013-02-06 03:21:00,45.0,42.0,29.92,South,180,6.0,-999.0,90,-99.99,,,-99.99,,2013-02-06 11:21:00,
2013-02-06 03:31:00,45.0,42.0,29.92,South,180,6.0,-999.0,90,-99.99,,,-99.99,,2013-02-06 11:31:00,
2013-02-06 03:41:00,45.0,42.0,29.92,South,180,6.0,-999.0,90,-99.99,,,-99.99,,2013-02-06 11:41:00,
2013-02-06 03:52:00,45.0,42.0,29.92,South,180,6.0,-999.0,90,-99.99,,,-99.99,,2013-02-06 11:52:00,
2013-02-06 04:00:00,45.0,42.0,29.93,South,190,3.0,-999.0,88,-99.99,,,-99.99,,2013-02-06 12:00:00,
2013-02-06 04:21:00,45.0,42.0,29.93,South,190,3.0,-999.0,88,-99.99,,,-99.99,,2013-02-06 12:21:00,
2013-02-06 04:32:00,45.0,42.0,29.93,South,190,3.0,-999.0,88,-99.99,,,-99.99,,2013-02-06 12:32:00,
2013-02-06 04:41:00,45.0,42.0,29.93,South,190,3.0,-999.0,88,-99.99,,,-99.99,,2013-02-06 12:41:00,
2013-02-06 04:52:00,45.0,42.0,29.93,South,190,3.0,-999.0,88,-99.99,,,-99.99,,2013-02-06 12:52:00,
2013-02-06 05:00:00,45.0,42.0,29.95,SSW,200,6.0,-999.0,91,-99.99,,,-99.99,,2013-02-06 13:00:00,
2013-02-06 05:21:00,45.0,42.0,29.95,SSW,200,6.0,-999.0,91,-99.99,,,-99.99,,2013-02-06 13:21:00,
2013-02-06 05:31:00,45.0,42.0,29.95,SSW,200,6.0,-999.0,91,-99.99,,,-99.99,,2013-02-06 13:31:00,
2013-02-06 05:41:00,45.0,42.0,29.95,SSW,200,6.0,-999.0,91,-99.99,,,-99.99,,2013-02-06 13:41:00,
2013-02-06 05:51:00,45.0,42.0,29.95,SSW,200,6.0,-999.0,91,-99.99,,,-99.99,,2013-02-06 13:51:00,
2013-02-06 06:00:00,45.0,43.0,29.96,SSW,210,3.0,-999.0,93,-99.99,,,-99.99,,2013-02-06 14:00:00,
2013-02-06 06:21:00,45.0,43.0,29.96,SSW,210,3.0,-999.0,93,-99.99,,,-99.99,,2013-02-06 14:21:00,
2013-02-06 06:31:00,45.0,43.0,29.96,SSW,210,3.0,-999.0,93,-99.99,,,-99.99,,2013-02-06 14:31:00,
2013-02-06 06:41:00,45.0,43.0,29.96,SSW,210,3.0,-999.0,93,-99.99,,,-99.99,,2013-02-06 14:41:00,
2013-02-06 06:51:00,45.0,43.0,29.96,SSW,210,3.0,-999.0,93,-99.99,,,-99.99,,2013-02-06 14:51:00,
2013-02-06 08:00:00,44.0,41.0,29.98,SE,130,5.0,-999.0,91,-99.99,,,-99.99,,2013-02-06 16:00:00,
2013-02-06 08:21:00,44.0,41.0,29.98,SE,130,5.0,-999.0,91,-99.99,,,-99.99,,2013-02-06 16:21:00,
2013-02-06 08:31:00,44.0,41.0,29.98,SE,130,5.0,-999.0,91,-99.99,,,-99.99,,2013-02-06 16:31:00,
2013-02-06 08:41:00,44.0,41.0,29.98,SE,130,5.0,-999.0,91,-99.99,,,-99.99,,2013-02-06 16:41:00,
2013-02-06 08:51:00,44.0,41.0,29.98,SE,130,5.0,-999.0,91,-99.99,,,-99.99,,2013-02-06 16:51:00,
2013-02-06 09:00:00,45.0,43.0,29.98,SE,140,7.0,-999.0,93,-99.99,,,-99.99,,2013-02-06 17:00:00,
2013-02-06 09:21:00,45.0,43.0,29.98,SE,140,7.0,-999.0,93,-99.99,,,-99.99,,2013-02-06 17:21:00,
2013-02-06 09:32:00,45.0,43.0,29.98,SE,140,7.0,-999.0,93,-99.99,,,-99.99,,2013-02-06 17:32:00,
2013-02-06 09:41:00,45.0,43.0,29.98,SE,140,7.0,-999.0,93,-99.99,,,-99.99,,2013-02-06 17:41:00,
2013-02-06 09:52:00,45.0,43.0,29.98,SE,140,7.0,-999.0,93,-99.99,,,-99.99,,2013-02-06 17:52:00,
2013-02-06 10:00:00,45.0,44.0,29.98,ESE,120,8.0,-999.0,94,-99.99,,,-99.99,,2013-02-06 18:00:00,
2013-02-06 10:22:00,45.0,44.0,29.98,ESE,120,8.0,-999.0,94,-99.99,,,-99.99,,2013-02-06 18:22:00,
2013-02-06 10:32:00,45.0,44.0,29.98,ESE,120,8.0,-999.0,94,-99.99,,,-99.99,,2013-02-06 18:32:00,
2013-02-06 10:41:00,45.0,44.0,29.98,ESE,120,8.0,-999.0,94,-99.99,,,-99.99,,2013-02-06 18:41:00,
2013-02-06 10:52:00,45.0,44.0,29.98,ESE,120,8.0,-999.0,94,-99.99,,,-99.99,,2013-02-06 18:52:00,
2013-02-06 11:00:00,45.0,43.0,29.98,ESE,120,8.0,-999.0,91,-99.99,,,-99.99,,2013-02-06 19:00:00,
2013-02-06 11:21:00,45.0,43.0,29.98,ESE,120,8.0,-999.0,91,-99.99,,,-99.99,,2013-02-06 19:21:00,
2013-02-06 11:31:00,45.0,43.0,29.98,ESE,120,8.0,-999.0,91,-99.99,,,-99.99,,2013-02-06 19:31:00,
2013-02-06 11:41:00,45.0,43.0,29.98,ESE,120,8.0,-999.0,91,-99.99,,,-99.99,,2013-02-06 19:41:00,
2013-02-06 11:52:00,45.0,43.0,29.98,ESE,120,8.0,-999.0,91,-99.99,,,-99.99,,2013-02-06 19:52:00,
2013-02-06 12:00:00,46.0,43.0,29.97,ESE,120,5.0,-999.0,89,-99.99,,,-99.99,,2013-02-06 20:00:00,
2013-02-06 12:21:00,46.0,43.0,29.97,ESE,120,5.0,-999.0,89,-99.99,,,-99.99,,2013-02-06 20:21:00,
2013-02-06 12:31:00,46.0,43.0,29.97,ESE,120,5.0,-999.0,89,-99.99,,,-99.99,,2013-02-06 20:31:00,
2013-02-06 12:41:00,46.0,43.0,29.97,ESE,120,5.0,-999.0,89,-99.99,,,-99.99,,2013-02-06 20:41:00,
2013-02-06 12:52:00,46.0,43.0,29.97,ESE,120,5.0,-999.0,89,-99.99,,,-99.99,,2013-02-06 20:52:00,
2013-02-06 13:00:00,46.0,42.0,29.95,ESE,110,6.0,-999.0,85,-99.99,,,-99.99,,2013-02-06 21:00:00,
2013-02-06 13:21:00,46.0,42.0,29.95,ESE,110,6.0,-999.0,85,-99.99,,,-99.99,,2013-02-06 21:21:00,
2013-02-06 13:31:00,46.0,42.0,29.95,ESE,110,6.0,-999.0,85,-99.99,,,-99.99,,2013-02-06 21:31:00,
2013-02-06 13:41:00,46.0,42.0,29.95,ESE,110,6.0,-999.0,85,-99.99,,,-99.99,,2013-02-06 21:41:00,
2013-02-06 13:51:00,46.0,42.0,29.95,ESE,110,6.0,-999.0,85,-99.99,,,-99.99,,2013-02-06 21:51:00,
2013-02-06 14:00:00,46.0,43.0,29.93,East,90,9.0,-999.0,88,-99.99,,,-99.99,,2013-02-06 22:00:00,
2013-02-06 14:21:00,46.0,43.0,29.93,East,90,9.0,-999.0,88,-99.99,,,-99.99,,2013-02-06 22:21:00,
2013-02-06 14:31:00,46.0,43.0,29.93,East,90,9.0,-999.0,88,-99.99,,,-99.99,,2013-02-06 22:31:00,
2013-02-06 14:41:00,46.0,43.0,29.93,East,90,9.0,-999.0,88,-99.99,,,-99.99,,2013-02-06 22:41:00,
2013-02-06 14:51:00,46.0,43.0,29.93,East,90,9.0,-999.0,88,-99.99,,,-99.99,,2013-02-06 22:51:00,
2013-02-06 15:00:00,46.0,43.0,29.91,East,90,9.0,-999.0,89,-99.99,,,-99.99,,2013-02-06 23:00:00,
2013-02-06 15:21:00,46.0,43.0,29.91,East,90,9.0,-999.0,89,-99.99,,,-99.99,,2013-02-06 23:21:00,
2013-02-06 15:31:00,46.0,43.0,29.91,East,90,9.0,-999.0,89,-99.99,,,-99.99,,2013-02-06 23:31:00,
2013-02-06 15:41:00,46.0,43.0,29.91,East,90,9.0,-999.0,89,-99.99,,,-99.99,,2013-02-06 23:41:00,
2013-02-06 15:51:00,46.0,43.0,29.91,East,90,9.0,-999.0,89,-99.99,,,-99.99,,2013-02-06 23:51:00,
2013-02-06 16:00:00,47.0,43.0,29.90,SE,130,8.0,-999.0,87,-99.99,,,-99.99,,2013-02-07 00:00:00,
2013-02-06 16:21:00,47.0,43.0,29.90,SE,130,8.0,-999.0,87,-99.99,,,-99.99,,2013-02-07 00:21:00,
2013-02-06 16:31:00,47.0,43.0,29.90,SE,130,8.0,-999.0,87,-99.99,,,-99.99,,2013-02-07 00:31:00,
2013-02-06 16:41:00,47.0,43.0,29.90,SE,130,8.0,-999.0,87,-99.99,,,-99.99,,2013-02-07 00:41:00,
2013-02-06 16:51:00,47.0,43.0,29.90,SE,130,8.0,-999.0,87,-99.99,,,-99.99,,2013-02-07 00:51:00,
2013-02-06 17:00:00,47.0,44.0,29.88,ESE,110,7.0,-999.0,89,-99.99,,,-99.99,,2013-02-07 01:00:00,
2013-02-06 17:21:00,47.0,44.0,29.88,ESE,110,7.0,-999.0,89,-99.99,,,-99.99,,2013-02-07 01:21:00,
2013-02-06 17:31:00,47.0,44.0,29.88,ESE,110,7.0,-999.0,89,-99.99,,,-99.99,,2013-02-07 01:31:00,
2013-02-06 17:41:00,47.0,44.0,29.88,ESE,110,7.0,-999.0,89,-99.99,,,-99.99,,2013-02-07 01:41:00,
2013-02-06 17:52:00,47.0,44.0,29.88,ESE,110,7.0,-999.0,89,-99.99,,,-99.99,,2013-02-07 01:52:00,
2013-02-06 18:00:00,47.0,43.0,29.85,ESE,110,14.0,-999.0,88,-99.99,,,-99.99,,2013-02-07 02:00:00,
2013-02-06 18:21:00,47.0,43.0,29.85,ESE,110,14.0,-999.0,88,-99.99,,,-99.99,,2013-02-07 02:21:00,
2013-02-06 18:31:00,47.0,43.0,29.85,ESE,110,14.0,-999.0,88,-99.99,,,-99.99,,2013-02-07 02:31:00,
2013-02-06 18:41:00,47.0,43.0,29.85,ESE,110,14.0,-999.0,88,-99.99,,,-99.99,,2013-02-07 02:41:00,
2013-02-06 18:51:00,47.0,43.0,29.85,ESE,110,14.0,-999.0,88,-99.99,,,-99.99,,2013-02-07 02:51:00,
2013-02-06 19:00:00,47.0,43.0,29.83,SE,130,15.0,-999.0,87,-99.99,,,-99.99,,2013-02-07 03:00:00,
2013-02-06 19:21:00,47.0,43.0,29.83,SE,130,15.0,-999.0,87,-99.99,,,-99.99,,2013-02-07 03:21:00,
2013-02-06 19:31:00,47.0,43.0,29.83,SE,130,15.0,-999.0,87,-99.99,,,-99.99,,2013-02-07 03:31:00,
2013-02-06 19:41:00,47.0,43.0,29.83,SE,130,15.0,-999.0,87,-99.99,,,-99.99,,2013-02-07 03:41:00,
2013-02-06 19:51:00,47.0,43.0,29.83,SE,130,15.0,-999.0,87,-99.99,,,-99.99,,2013-02-07 03:51:00,
2013-02-06 20:00:00,47.0,43.0,29.81,ESE,120,16.0,-999.0,84,-99.99,,,-99.99,,2013-02-07 04:00:00,
2013-02-06 20:21:00,47.0,43.0,29.81,ESE,120,16.0,-999.0,84,-99.99,,,-99.99,,2013-02-07 04:21:00,
2013-02-06 20:31:00,47.0,43.0,29.81,ESE,120,16.0,-999.0,84,-99.99,,,-99.99,,2013-02-07 04:31:00,
2013-02-06 20:41:00,47.0,43.0,29.81,ESE,120,16.0,-999.0,84,-99.99,,,-99.99,,2013-02-07 04:41:00,
2013-02-06 20:52:00,47.0,43.0,29.81,ESE,120,16.0,-999.0,84,-99.99,,,-99.99,,2013-02-07 04:52:00,
2013-02-06 21:00:00,47.0,42.0,29.78,SE,130,16.0,-999.0,79,-99.99,,,-99.99,,2013-02-07 05:00:00,
2013-02-06 21:21:00,47.0,42.0,29.78,SE,130,16.0,-999.0,79,-99.99,,,-99.99,,2013-02-07 05:21:00,
2013-02-06 21:31:00,47.0,42.0,29.78,SE,130,16.0,-999.0,79,-99.99,,,-99.99,,2013-02-07 05:31:00,
2013-02-06 21:42:00,47.0,42.0,29.78,SE,130,16.0,-999.0,79,-99.99,,,-99.99,,2013-02-07 05:42:00,
2013-02-06 21:52:00,47.0,42.0,29.78,SE,130,16.0,-999.0,79,-99.99,,,-99.99,,2013-02-07 05:52:00,
2013-02-06 22:00:00,48.0,41.0,29.76,SE,140,10.0,-999.0,76,-99.99,,,-99.99,,2013-02-07 06:00:00,
2013-02-06 22:22:00,48.0,41.0,29.76,SE,140,10.0,-999.0,76,-99.99,,,-99.99,,2013-02-07 06:22:00,
2013-02-06 22:31:00,48.0,41.0,29.76,SE,140,10.0,-999.0,76,-99.99,,,-99.99,,2013-02-07 06:31:00,
2013-02-06 22:42:00,48.0,41.0,29.76,SE,140,10.0,-999.0,76,-99.99,,,-99.99,,2013-02-07 06:42:00,
2013-02-06 22:52:00,48.0,41.0,29.76,SE,140,10.0,-999.0,76,-99.99,,,-99.99,,2013-02-07 06:52:00,
2013-02-06 23:00:00,49.0,40.0,29.73,SE,130,15.0,-999.0,71,-99.99,,,-99.99,,2013-02-07 07:00:00,
2013-02-06 23:21:00,49.0,40.0,29.73,SE,130,15.0,-999.0,71,-99.99,,,-99.99,,2013-02-07 07:21:00,
2013-02-06 23:31:00,49.0,40.0,29.73,SE,130,15.0,-999.0,71,-99.99,,,-99.99,,2013-02-07 07:31:00,
2013-02-06 23:41:00,49.0,40.0,29.73,SE,130,15.0,-999.0,71,-99.99,,,-99.99,,2013-02-07 07:41:00,
2013-02-06 23:52:00,49.0,40.0,29.73,SE,130,15.0,-999.0,71,-99.99,,,-99.99,,2013-02-07 07:52:00,